SP9SOY-2 Weather Reports


time (UTC)temp
F
wind
direction
speed
knots
gust
knots
rain 1hr
in
rain 24hr
in
rain mn
in
humidity
%
barometer
mb
20260507215711 55 0.0 0.0 0.00 0.00 0.00 40
20260507212711 55 0.0 0.0 0.00 0.00 0.00 39
20260507205740 55 0.0 0.0 0.00 0.00 0.00 39
20260507202711 57 0.0 0.0 0.00 0.00 0.00 37
20260507192710 60 0.0 0.0 0.00 0.00 0.00 35
20260507185715 62 0.0 0.0 0.00 0.00 0.00 34
20260507182712 62 0.0 0.0 0.00 0.00 0.00 30
20260507175711 63 0.0 0.0 0.00 0.00 0.00 28
20260507172717 63 0.0 0.0 0.00 0.00 0.00 27
20260507165713 64 0.0 0.0 0.00 0.00 0.00 27
20260507162714 64 0.0 0.0 0.00 0.00 0.00 29
20260507155712 63 0.0 0.0 0.00 0.00 0.00 28
20260507152715 64 0.0 0.0 0.00 0.00 0.00 27
20260507145714 65 0.0 0.0 0.00 0.00 0.00 24
20260507142712 67 0.0 0.0 0.00 0.00 0.00 17
20260507135711 69 0.0 0.0 0.00 0.00 0.00 17
20260507132711 71 0.0 0.0 0.00 0.00 0.00 16
20260507115718 73 0.0 0.0 0.00 0.00 0.00 16
20260507112711 73 0.0 0.0 0.00 0.00 0.00 16
20260507105710 74 0.0 0.0 0.00 0.00 0.00 16
20260507102713 73 0.0 0.0 0.00 0.00 0.00 16
20260507095713 73 0.0 0.0 0.00 0.00 0.00 16
20260507092715 72 0.0 0.0 0.00 0.00 0.00 16
20260507085715 73 0.0 0.0 0.00 0.00 0.00 16
20260507082708 71 0.0 0.0 0.00 0.00 0.00 16
20260507075711 71 0.0 0.0 0.00 0.00 0.00 17
20260507072715 71 0.0 0.0 0.00 0.00 0.00 17
20260507065711 70 0.0 0.0 0.00 0.00 0.00 17
20260507062714 69 0.0 0.0 0.00 0.00 0.00 17
20260507055714 67 0.0 0.0 0.00 0.00 0.00 17
20260507052709 66 0.0 0.0 0.00 0.00 0.00 20